Starlink 30094

operational
NORAD ID: 56305 Int'l Des: 2023-056 Owner: SPXS Country: US Constellation: starlink
LEOCIRCULAR

关于 Starlink 30094

正在加载描述...

实时位置

正在加载3D地球...

即将过境

高度历史

Altitude vs Time

uPlot chart will show altitude changes over time

两行轨道根数

1 56305U 23056V 25258.23953718 .00000628 00000-0 61560-4 0 9993
2 56305 43.0031 83.3569 0001350 269.3942 90.6746 15.02536803133697
Epoch: Sep 15, 2025 • Age: 20 hours

当前状态

高度 563.8 km
速度 7.58 km/s
星下点 -22.14°S, 98.35°W
发射日期 Apr 19, 2023
运行时间 2.4 years
类型 internet

技术详情

分类 Payload
质量 730.00 kg
干质量 700.00 kg
总质量 730.00 kg
长度 0.30 m
直径 4.10 m
跨度 29.00 m
形状 Box + pan
制造商 SPXS
平台类型 Starlink V2M
阶段状态 In Orbit
所有者/国家 SPXS/US

大型星座

Loading constellations...